Time,TemperatureF,DewpointF,PressureIn,WindDirection,WindDirectionDegrees,WindSpeedMPH,WindSpeedGustMPH,Humidity,HourlyPrecipIn,Conditions,Clouds,dailyrainin,SoftwareType,DateUTC
2013-08-22 00:00:00,72.0,70.8,30.16,South,170,0.0,0.0,96,0.00,,---,0.00,VWS V14.01,2013-08-22 04:00:00,
2013-08-22 00:01:00,72.1,70.9,30.16,South,170,0.0,0.0,96,0.00,,---,0.00,VWS V14.01,2013-08-22 04:01:00,
2013-08-22 00:06:00,72.1,70.9,30.16,South,170,0.0,0.0,96,0.00,,---,0.00,VWS V14.01,2013-08-22 04:06:00,
2013-08-22 00:11:00,72.0,70.8,30.16,South,171,0.0,0.0,96,0.00,,---,0.00,VWS V14.01,2013-08-22 04:11:00,
2013-08-22 00:16:00,72.1,71.2,30.16,SSW,205,1.0,1.0,97,0.00,,---,0.00,VWS V14.01,2013-08-22 04:16:00,
2013-08-22 00:21:00,71.9,70.7,30.16,SSW,194,2.0,2.0,96,0.00,,---,0.00,VWS V14.01,2013-08-22 04:21:00,
2013-08-22 00:26:00,71.5,70.3,30.16,South,172,2.0,2.0,96,0.00,,---,0.00,VWS V14.01,2013-08-22 04:26:00,
2013-08-22 00:31:00,71.3,70.1,30.16,South,169,3.0,3.0,96,0.00,,---,0.00,VWS V14.01,2013-08-22 04:31:00,
2013-08-22 00:36:00,71.3,70.1,30.16,South,179,2.0,2.0,96,0.00,,---,0.00,VWS V14.01,2013-08-22 04:36:00,
2013-08-22 00:41:00,71.3,70.4,30.16,SSW,211,1.0,2.0,97,0.00,,---,0.00,VWS V14.01,2013-08-22 04:41:00,
2013-08-22 00:46:00,71.4,70.5,30.16,SSE,161,2.0,3.0,97,0.00,,---,0.00,VWS V14.01,2013-08-22 04:46:00,
2013-08-22 00:51:00,71.4,70.5,30.16,SSE,167,3.0,6.0,97,0.00,,---,0.00,VWS V14.01,2013-08-22 04:51:00,
2013-08-22 00:57:00,71.4,70.5,30.16,SSE,165,3.0,3.0,97,0.00,,---,0.00,VWS V14.01,2013-08-22 04:57:00,
2013-08-22 01:02:00,71.5,70.6,30.15,SSE,166,2.0,2.0,97,0.00,,---,0.00,VWS V14.01,2013-08-22 05:02:00,
2013-08-22 01:07:00,71.4,70.5,30.15,SSE,167,1.0,1.0,97,0.00,,---,0.00,VWS V14.01,2013-08-22 05:07:00,
2013-08-22 01:12:00,71.3,70.4,30.16,SSE,168,1.0,2.0,97,0.00,,---,0.00,VWS V14.01,2013-08-22 05:12:00,
2013-08-22 01:17:00,71.3,70.4,30.16,West,270,0.0,1.0,97,0.00,,---,0.00,VWS V14.01,2013-08-22 05:17:00,
2013-08-22 01:22:00,71.3,70.4,30.16,WSW,239,0.0,0.0,97,0.00,,---,0.00,VWS V14.01,2013-08-22 05:22:00,
2013-08-22 01:27:00,71.3,70.4,30.16,SW,235,1.0,2.0,97,0.00,,---,0.00,VWS V14.01,2013-08-22 05:27:00,
2013-08-22 01:32:00,71.3,70.4,30.16,SW,228,2.0,2.0,97,0.00,,---,0.00,VWS V14.01,2013-08-22 05:32:00,
2013-08-22 01:37:00,71.2,70.3,30.16,SSW,212,2.0,3.0,97,0.00,,---,0.00,VWS V14.01,2013-08-22 05:37:00,
2013-08-22 01:42:00,71.1,70.2,30.16,SSW,204,1.0,2.0,97,0.00,,---,0.00,VWS V14.01,2013-08-22 05:42:00,
2013-08-22 01:47:00,71.1,70.2,30.16,WSW,246,1.0,2.0,97,0.00,,---,0.00,VWS V14.01,2013-08-22 05:47:00,
2013-08-22 01:52:00,71.1,70.2,30.16,West,269,0.0,1.0,97,0.00,,---,0.00,VWS V14.01,2013-08-22 05:52:00,
2013-08-22 01:57:00,71.0,70.1,30.16,West,269,0.0,0.0,97,0.00,,---,0.00,VWS V14.01,2013-08-22 05:57:00,
2013-08-22 02:02:00,71.0,70.1,30.16,SW,217,0.0,0.0,97,0.00,,---,0.00,VWS V14.01,2013-08-22 06:02:00,
2013-08-22 02:07:00,70.9,70.0,30.16,SW,216,0.0,0.0,97,0.00,,---,0.00,VWS V14.01,2013-08-22 06:07:00,
2013-08-22 02:12:00,70.9,70.0,30.16,SW,217,0.0,0.0,97,0.00,,---,0.00,VWS V14.01,2013-08-22 06:12:00,
2013-08-22 02:17:00,70.8,69.9,30.15,WSW,257,0.0,0.0,97,0.00,,---,0.00,VWS V14.01,2013-08-22 06:17:00,
2013-08-22 02:22:00,70.7,69.8,30.15,WSW,257,0.0,0.0,97,0.00,,---,0.00,VWS V14.01,2013-08-22 06:22:00,
2013-08-22 02:27:00,70.7,69.8,30.16,West,274,0.0,2.0,97,0.00,,---,0.00,VWS V14.01,2013-08-22 06:27:00,
2013-08-22 02:32:00,70.5,69.6,30.16,WSW,250,1.0,1.0,97,0.00,,---,0.00,VWS V14.01,2013-08-22 06:32:00,
2013-08-22 02:37:00,70.5,69.6,30.16,SW,229,1.0,3.0,97,0.00,,---,0.00,VWS V14.01,2013-08-22 06:37:00,
2013-08-22 02:42:00,70.3,69.4,30.15,SSW,211,0.0,2.0,97,0.00,,---,0.00,VWS V14.01,2013-08-22 06:42:00,
2013-08-22 02:47:00,70.2,69.3,30.15,SW,214,1.0,1.0,97,0.00,,---,0.00,VWS V14.01,2013-08-22 06:47:00,
2013-08-22 02:52:00,70.2,69.3,30.15,SW,214,0.0,1.0,97,0.00,,---,0.00,VWS V14.01,2013-08-22 06:52:00,
2013-08-22 02:57:00,70.1,69.2,30.15,SW,214,0.0,1.0,97,0.00,,---,0.00,VWS V14.01,2013-08-22 06:57:00,
2013-08-22 03:02:00,70.0,69.1,30.16,SW,221,0.0,1.0,97,0.00,,---,0.00,VWS V14.01,2013-08-22 07:02:00,
2013-08-22 03:07:00,70.0,69.1,30.16,WSW,238,0.0,1.0,97,0.00,,---,0.00,VWS V14.01,2013-08-22 07:07:00,
2013-08-22 03:13:00,70.0,69.1,30.16,South,181,1.0,1.0,97,0.00,,---,0.00,VWS V14.01,2013-08-22 07:13:00,
2013-08-22 03:18:00,70.0,69.1,30.15,SE,140,1.0,1.0,97,0.00,,---,0.00,VWS V14.01,2013-08-22 07:18:00,
2013-08-22 03:23:00,69.9,69.0,30.15,SSE,150,0.0,1.0,97,0.00,,---,0.00,VWS V14.01,2013-08-22 07:23:00,
2013-08-22 03:28:00,69.8,68.9,30.15,SSW,203,0.0,1.0,97,0.00,,---,0.00,VWS V14.01,2013-08-22 07:28:00,
2013-08-22 03:33:00,69.8,68.9,30.15,South,169,2.0,2.0,97,0.00,,---,0.00,VWS V14.01,2013-08-22 07:33:00,
2013-08-22 03:38:00,69.8,68.9,30.15,SW,222,0.0,2.0,97,0.00,,---,0.00,VWS V14.01,2013-08-22 07:38:00,
2013-08-22 03:43:00,69.8,68.9,30.15,SSW,212,0.0,1.0,97,0.00,,---,0.00,VWS V14.01,2013-08-22 07:43:00,
2013-08-22 03:48:00,69.7,68.8,30.15,SSW,212,0.0,0.0,97,0.00,,---,0.00,VWS V14.01,2013-08-22 07:48:00,
2013-08-22 03:53:00,69.7,68.8,30.15,SSW,212,0.0,0.0,97,0.00,,---,0.00,VWS V14.01,2013-08-22 07:53:00,
2013-08-22 03:58:00,69.7,68.8,30.15,SSW,212,0.0,0.0,97,0.00,,---,0.00,VWS V14.01,2013-08-22 07:58:00,
2013-08-22 04:03:00,69.7,68.8,30.15,SSW,212,0.0,1.0,97,0.00,,---,0.00,VWS V14.01,2013-08-22 08:03:00,
2013-08-22 04:08:00,69.7,69.1,30.15,SW,228,0.0,2.0,98,0.00,,---,0.00,VWS V14.01,2013-08-22 08:08:00,
2013-08-22 04:13:00,69.7,68.8,30.14,SSW,201,1.0,1.0,97,0.00,,---,0.00,VWS V14.01,2013-08-22 08:13:00,
2013-08-22 04:18:00,69.7,68.8,30.14,SW,219,0.0,1.0,97,0.00,,---,0.00,VWS V14.01,2013-08-22 08:18:00,
2013-08-22 04:23:00,69.7,68.8,30.14,SSW,207,1.0,1.0,97,0.00,,---,0.00,VWS V14.01,2013-08-22 08:23:00,
2013-08-22 04:28:00,69.7,69.1,30.14,South,191,2.0,2.0,98,0.00,,---,0.00,VWS V14.01,2013-08-22 08:28:00,
2013-08-22 04:33:00,69.6,69.0,30.14,SSW,207,2.0,2.0,98,0.00,,---,0.00,VWS V14.01,2013-08-22 08:33:00,
2013-08-22 04:38:00,69.6,69.0,30.14,SW,219,1.0,2.0,98,0.00,,---,0.00,VWS V14.01,2013-08-22 08:38:00,
2013-08-22 04:43:00,69.7,69.1,30.14,SW,219,0.0,1.0,98,0.00,,---,0.00,VWS V14.01,2013-08-22 08:43:00,
2013-08-22 04:48:00,69.8,69.2,30.14,WSW,252,0.0,1.0,98,0.00,,---,0.00,VWS V14.01,2013-08-22 08:48:00,
2013-08-22 04:53:00,69.9,69.3,30.13,WSW,252,0.0,1.0,98,0.00,,---,0.00,VWS V14.01,2013-08-22 08:53:00,
2013-08-22 04:58:00,69.9,69.3,30.13,WSW,252,0.0,0.0,98,0.00,,---,0.00,VWS V14.01,2013-08-22 08:58:00,
2013-08-22 05:03:00,69.9,69.3,30.13,WSW,252,0.0,0.0,98,0.00,,---,0.00,VWS V14.01,2013-08-22 09:03:00,
2013-08-22 05:08:00,69.6,68.7,30.14,SSW,192,2.0,2.0,97,0.00,,---,0.00,VWS V14.01,2013-08-22 09:08:00,
2013-08-22 05:13:00,69.6,68.7,30.13,SSW,201,1.0,1.0,97,0.00,,---,0.00,VWS V14.01,2013-08-22 09:13:00,
2013-08-22 05:18:00,69.6,68.7,30.13,South,190,0.0,1.0,97,0.00,,---,0.00,VWS V14.01,2013-08-22 09:18:00,
2013-08-22 05:23:00,69.7,69.1,30.13,SSW,194,0.0,1.0,98,0.00,,---,0.00,VWS V14.01,2013-08-22 09:23:00,
2013-08-22 05:29:00,69.8,69.2,30.13,SSW,197,1.0,1.0,98,0.00,,---,0.00,VWS V14.01,2013-08-22 09:29:00,
2013-08-22 05:34:00,69.7,69.1,30.13,SW,214,2.0,3.0,98,0.00,,---,0.00,VWS V14.01,2013-08-22 09:34:00,
2013-08-22 05:39:00,69.5,68.6,30.13,SSW,207,1.0,2.0,97,0.00,,---,0.00,VWS V14.01,2013-08-22 09:39:00,
2013-08-22 05:44:00,69.5,68.6,30.13,SW,215,1.0,1.0,97,0.00,,---,0.00,VWS V14.01,2013-08-22 09:44:00,
2013-08-22 05:49:00,69.6,69.0,30.13,SW,222,1.0,2.0,98,0.00,,---,0.00,VWS V14.01,2013-08-22 09:49:00,
2013-08-22 05:54:00,69.7,69.1,30.13,SW,235,0.0,1.0,98,0.00,,---,0.00,VWS V14.01,2013-08-22 09:54:00,
2013-08-22 05:59:00,69.8,69.2,30.13,WSW,245,0.0,1.0,98,0.00,,---,0.00,VWS V14.01,2013-08-22 09:59:00,
2013-08-22 06:04:00,69.9,69.3,30.13,SW,233,0.0,1.0,98,0.00,,---,0.00,VWS V14.01,2013-08-22 10:04:00,
2013-08-22 06:09:00,69.9,69.3,30.13,West,260,0.0,1.0,98,0.00,,---,0.00,VWS V14.01,2013-08-22 10:09:00,
2013-08-22 06:14:00,70.1,69.5,30.13,WSW,248,3.0,4.0,98,0.00,,---,0.00,VWS V14.01,2013-08-22 10:14:00,
2013-08-22 06:19:00,70.3,69.7,30.14,West,266,1.0,4.0,98,0.00,,---,0.00,VWS V14.01,2013-08-22 10:19:00,
2013-08-22 06:24:00,70.3,69.7,30.14,West,271,0.0,5.0,98,0.00,,---,0.00,VWS V14.01,2013-08-22 10:24:00,
2013-08-22 06:29:00,70.3,69.7,30.14,West,281,1.0,1.0,98,0.00,,---,0.00,VWS V14.01,2013-08-22 10:29:00,
2013-08-22 06:34:00,70.2,69.6,30.14,WNW,290,1.0,2.0,98,0.00,,---,0.00,VWS V14.01,2013-08-22 10:34:00,
2013-08-22 06:39:00,70.2,69.6,30.14,WNW,288,1.0,3.0,98,0.00,,---,0.00,VWS V14.01,2013-08-22 10:39:00,
2013-08-22 06:44:00,70.2,69.6,30.14,West,278,0.0,2.0,98,0.00,,---,0.00,VWS V14.01,2013-08-22 10:44:00,
2013-08-22 06:49:00,70.1,69.5,30.14,WSW,257,0.0,3.0,98,0.00,,---,0.00,VWS V14.01,2013-08-22 10:49:00,
2013-08-22 08:27:00,71.4,70.5,30.16,East,98,0.0,0.0,97,0.00,,---,0.00,VWS V14.01,2013-08-22 12:27:00,
2013-08-22 08:32:00,71.6,70.7,30.17,East,100,0.0,0.0,97,0.00,,---,0.00,VWS V14.01,2013-08-22 12:32:00,
2013-08-22 08:37:00,71.6,70.7,30.17,East,101,0.0,0.0,97,0.00,,---,0.00,VWS V14.01,2013-08-22 12:37:00,
2013-08-22 08:42:00,71.6,70.7,30.17,South,185,0.0,0.0,97,0.00,,---,0.00,VWS V14.01,2013-08-22 12:42:00,
2013-08-22 08:47:00,72.1,71.2,30.16,West,264,0.0,0.0,97,0.00,,---,0.00,VWS V14.01,2013-08-22 12:47:00,
2013-08-22 08:52:00,72.9,72.0,30.16,WSW,246,0.0,1.0,97,0.00,,---,0.00,VWS V14.01,2013-08-22 12:52:00,
2013-08-22 08:57:00,73.4,72.5,30.16,WSW,239,1.0,2.0,97,0.00,,---,0.00,VWS V14.01,2013-08-22 12:57:00,
2013-08-22 09:00:00,73.9,73.0,30.16,WSW,248,0.0,2.0,97,0.00,,---,0.00,VWS V14.01,2013-08-22 13:00:00,
2013-08-22 09:05:00,74.6,73.7,30.16,SW,219,0.0,3.0,97,0.00,,---,0.00,VWS V14.01,2013-08-22 13:05:00,
2013-08-22 09:10:00,75.0,73.5,30.16,WNW,302,0.0,2.0,95,0.00,,---,0.00,VWS V14.01,2013-08-22 13:10:00,
2013-08-22 09:15:00,75.5,74.0,30.16,WNW,286,2.0,2.0,95,0.00,,---,0.00,VWS V14.01,2013-08-22 13:15:00,
2013-08-22 09:20:00,75.7,73.8,30.16,WNW,299,2.0,5.0,94,0.00,,---,0.00,VWS V14.01,2013-08-22 13:20:00,
2013-08-22 09:25:00,76.2,74.0,30.16,WSW,252,0.0,6.0,93,0.00,,---,0.00,VWS V14.01,2013-08-22 13:25:00,
2013-08-22 09:30:00,76.7,74.2,30.16,WNW,284,3.0,4.0,92,0.00,,---,0.00,VWS V14.01,2013-08-22 13:30:00,
2013-08-22 09:35:00,76.9,73.8,30.16,SW,224,3.0,6.0,90,0.00,,---,0.00,VWS V14.01,2013-08-22 13:35:00,
2013-08-22 09:40:00,77.2,74.0,30.16,SW,219,0.0,6.0,90,0.00,,---,0.00,VWS V14.01,2013-08-22 13:40:00,
2013-08-22 09:46:00,77.6,73.8,30.16,NW,309,3.0,5.0,88,0.00,,---,0.00,VWS V14.01,2013-08-22 13:46:00,
2013-08-22 09:51:00,77.5,73.7,30.16,NW,318,4.0,7.0,88,0.00,,---,0.00,VWS V14.01,2013-08-22 13:51:00,
2013-08-22 09:56:00,77.5,73.7,30.16,WSW,257,1.0,8.0,88,0.00,,---,0.00,VWS V14.01,2013-08-22 13:56:00,
2013-08-22 10:01:00,77.8,73.3,30.16,West,267,3.0,8.0,86,0.00,,---,0.00,VWS V14.01,2013-08-22 14:01:00,
2013-08-22 10:06:00,78.1,73.6,30.16,WSW,255,5.0,5.0,86,0.00,,---,0.00,VWS V14.01,2013-08-22 14:06:00,
2013-08-22 10:11:00,78.4,73.5,30.16,SW,232,0.0,9.0,85,0.00,,---,0.00,VWS V14.01,2013-08-22 14:11:00,
2013-08-22 10:16:00,78.5,72.9,30.16,SW,228,0.0,9.0,83,0.00,,---,0.00,VWS V14.01,2013-08-22 14:16:00,
2013-08-22 10:21:00,78.9,73.3,30.16,WNW,287,3.0,11.0,83,0.00,,---,0.00,VWS V14.01,2013-08-22 14:21:00,
2013-08-22 10:26:00,79.0,73.4,30.16,WNW,293,2.0,9.0,83,0.00,,---,0.00,VWS V14.01,2013-08-22 14:26:00,
2013-08-22 10:31:00,79.1,73.5,30.16,WNW,284,2.0,6.0,83,0.00,,---,0.00,VWS V14.01,2013-08-22 14:31:00,
2013-08-22 10:36:00,79.6,73.6,30.16,WSW,257,1.0,10.0,82,0.00,,---,0.00,VWS V14.01,2013-08-22 14:36:00,
2013-08-22 10:41:00,80.2,73.8,30.16,WSW,257,4.0,8.0,81,0.00,,---,0.00,VWS V14.01,2013-08-22 14:41:00,
2013-08-22 10:46:00,80.3,73.6,30.16,WNW,288,2.0,8.0,80,0.00,,---,0.00,VWS V14.01,2013-08-22 14:46:00,
2013-08-22 10:51:00,80.4,73.7,30.16,WNW,297,2.0,6.0,80,0.00,,---,0.00,VWS V14.01,2013-08-22 14:51:00,
2013-08-22 10:56:00,80.5,73.4,30.16,West,278,3.0,8.0,79,0.00,,---,0.00,VWS V14.01,2013-08-22 14:56:00,
2013-08-22 11:01:00,80.7,74.0,30.16,West,266,3.0,5.0,80,0.00,,---,0.00,VWS V14.01,2013-08-22 15:01:00,
2013-08-22 11:06:00,80.8,74.4,30.15,West,267,2.0,6.0,81,0.00,,---,0.00,VWS V14.01,2013-08-22 15:06:00,
2013-08-22 11:11:00,81.2,74.8,30.15,SSW,195,1.0,1.0,81,0.00,,---,0.00,VWS V14.01,2013-08-22 15:11:00,
2013-08-22 11:16:00,81.3,73.8,30.15,WNW,299,7.0,8.0,78,0.00,,---,0.00,VWS V14.01,2013-08-22 15:16:00,
2013-08-22 11:21:00,81.5,74.0,30.15,West,267,6.0,7.0,78,0.00,,---,0.00,VWS V14.01,2013-08-22 15:21:00,
2013-08-22 11:26:00,81.7,74.6,30.15,WNW,284,5.0,8.0,79,0.00,,---,0.00,VWS V14.01,2013-08-22 15:26:00,
2013-08-22 11:31:00,81.9,75.1,30.15,WSW,245,0.0,6.0,80,0.00,,---,0.00,VWS V14.01,2013-08-22 15:31:00,
2013-08-22 11:36:00,82.1,74.6,30.15,NW,322,0.0,9.0,78,0.00,,---,0.00,VWS V14.01,2013-08-22 15:36:00,
2013-08-22 11:41:00,82.2,73.9,30.15,WSW,252,3.0,6.0,76,0.00,,---,0.00,VWS V14.01,2013-08-22 15:41:00,
2013-08-22 11:46:00,82.3,74.8,30.15,WNW,283,3.0,7.0,78,0.00,,---,0.00,VWS V14.01,2013-08-22 15:46:00,
2013-08-22 11:51:00,82.3,74.0,30.15,West,281,6.0,8.0,76,0.00,,---,0.00,VWS V14.01,2013-08-22 15:51:00,
2013-08-22 11:56:00,82.3,74.0,30.14,WSW,256,4.0,7.0,76,0.00,,---,0.00,VWS V14.01,2013-08-22 15:56:00,
2013-08-22 12:01:00,82.6,74.7,30.15,West,281,3.0,7.0,77,0.00,,---,0.00,VWS V14.01,2013-08-22 16:01:00,
2013-08-22 12:06:00,82.7,74.0,30.14,West,263,0.0,6.0,75,0.00,,---,0.00,VWS V14.01,2013-08-22 16:06:00,
2013-08-22 12:11:00,83.3,74.9,30.14,SW,235,5.0,5.0,76,0.00,,---,0.00,VWS V14.01,2013-08-22 16:11:00,
2013-08-22 12:16:00,83.5,74.8,30.14,WSW,250,3.0,6.0,75,0.00,,---,0.00,VWS V14.01,2013-08-22 16:16:00,
2013-08-22 12:21:00,83.7,74.1,30.14,NNW,338,2.0,5.0,73,0.00,,---,0.00,VWS V14.01,2013-08-22 16:21:00,
2013-08-22 12:26:00,83.7,73.7,30.14,WSW,253,3.0,7.0,72,0.00,,---,0.00,VWS V14.01,2013-08-22 16:26:00,
2013-08-22 12:31:00,83.5,72.3,30.14,West,274,5.0,8.0,69,0.00,,---,0.00,VWS V14.01,2013-08-22 16:31:00,
2013-08-22 12:36:00,83.4,73.0,30.14,West,266,0.0,7.0,71,0.00,,---,0.00,VWS V14.01,2013-08-22 16:36:00,
2013-08-22 12:41:00,83.7,73.3,30.13,NNW,330,2.0,7.0,71,0.00,,---,0.00,VWS V14.01,2013-08-22 16:41:00,
2013-08-22 12:46:00,83.8,73.0,30.13,WNW,300,2.0,9.0,70,0.00,,---,0.00,VWS V14.01,2013-08-22 16:46:00,
2013-08-22 12:51:00,83.9,73.1,30.13,NW,321,3.0,8.0,70,0.00,,---,0.00,VWS V14.01,2013-08-22 16:51:00,
2013-08-22 12:56:00,84.0,73.6,30.13,NE,37,0.0,4.0,71,0.00,,---,0.00,VWS V14.01,2013-08-22 16:56:00,
2013-08-22 13:01:00,84.4,72.7,30.13,NW,315,1.0,4.0,68,0.00,,---,0.00,VWS V14.01,2013-08-22 17:01:00,
2013-08-22 13:06:00,84.3,72.2,30.13,WNW,290,3.0,6.0,67,0.00,,---,0.00,VWS V14.01,2013-08-22 17:06:00,
2013-08-22 13:11:00,84.5,73.7,30.12,NNE,29,0.0,3.0,70,0.00,,---,0.00,VWS V14.01,2013-08-22 17:11:00,
2013-08-22 13:16:00,84.8,73.5,30.12,West,273,3.0,5.0,69,0.00,,---,0.00,VWS V14.01,2013-08-22 17:16:00,
2013-08-22 13:21:00,84.7,73.4,30.12,NE,43,1.0,5.0,69,0.00,,---,0.00,VWS V14.01,2013-08-22 17:21:00,
2013-08-22 13:26:00,84.8,73.9,30.12,West,270,0.0,8.0,70,0.00,,---,0.00,VWS V14.01,2013-08-22 17:26:00,
2013-08-22 13:31:00,85.2,74.7,30.11,WSW,250,2.0,7.0,71,0.00,,---,0.00,VWS V14.01,2013-08-22 17:31:00,
2013-08-22 13:36:00,84.9,72.7,30.11,WSW,255,2.0,8.0,67,0.00,,---,0.00,VWS V14.01,2013-08-22 17:36:00,
2013-08-22 13:41:00,84.8,72.6,30.11,NW,322,4.0,7.0,67,0.00,,---,0.00,VWS V14.01,2013-08-22 17:41:00,
2013-08-22 13:46:00,84.9,72.7,30.11,West,278,0.0,5.0,67,0.00,,---,0.00,VWS V14.01,2013-08-22 17:46:00,
2013-08-22 13:51:00,85.3,73.1,30.11,WNW,293,4.0,4.0,67,0.00,,---,0.00,VWS V14.01,2013-08-22 17:51:00,
2013-08-22 13:56:00,84.9,72.7,30.11,NW,311,0.0,0.0,67,0.00,,---,0.00,VWS V14.01,2013-08-22 17:56:00,
2013-08-22 14:01:00,85.1,72.0,30.10,NW,305,3.0,3.0,65,0.00,,---,0.00,VWS V14.01,2013-08-22 18:01:00,
2013-08-22 14:06:00,85.2,71.7,30.10,NNW,331,3.0,4.0,64,0.00,,---,0.00,VWS V14.01,2013-08-22 18:06:00,
2013-08-22 14:11:00,85.4,72.3,30.10,WNW,293,1.0,1.0,65,0.00,,---,0.00,VWS V14.01,2013-08-22 18:11:00,
2013-08-22 14:16:00,85.9,73.7,30.10,SW,231,4.0,4.0,67,0.00,,---,0.00,VWS V14.01,2013-08-22 18:16:00,
2013-08-22 14:21:00,86.1,73.4,30.10,NNW,338,0.0,2.0,66,0.00,,---,0.00,VWS V14.01,2013-08-22 18:21:00,
2013-08-22 14:26:00,86.1,72.5,30.09,NW,316,1.0,2.0,64,0.00,,---,0.00,VWS V14.01,2013-08-22 18:26:00,
2013-08-22 14:31:00,86.1,73.9,30.09,WNW,288,1.0,2.0,67,0.00,,---,0.00,VWS V14.01,2013-08-22 18:31:00,
2013-08-22 14:36:00,86.4,73.7,30.09,NW,326,2.0,4.0,66,0.00,,---,0.00,VWS V14.01,2013-08-22 18:36:00,
2013-08-22 14:41:00,86.1,72.0,30.09,NW,319,2.0,5.0,63,0.00,,---,0.00,VWS V14.01,2013-08-22 18:41:00,
2013-08-22 14:46:00,85.6,73.4,30.08,West,274,3.0,3.0,67,0.00,,---,0.00,VWS V14.01,2013-08-22 18:46:00,
2013-08-22 14:51:00,85.3,73.1,30.08,NW,311,1.0,2.0,67,0.00,,---,0.00,VWS V14.01,2013-08-22 18:51:00,
2013-08-22 14:56:00,85.6,72.5,30.08,WNW,300,0.0,3.0,65,0.00,,---,0.00,VWS V14.01,2013-08-22 18:56:00,
2013-08-22 15:01:00,86.1,73.0,30.07,NW,315,3.0,3.0,65,0.00,,---,0.00,VWS V14.01,2013-08-22 19:01:00,
2013-08-22 15:06:00,86.1,71.6,30.07,NW,305,0.0,0.0,62,0.00,,---,0.00,VWS V14.01,2013-08-22 19:06:00,
2013-08-22 15:12:00,86.4,72.8,30.07,SW,222,2.0,3.0,64,0.00,,---,0.00,VWS V14.01,2013-08-22 19:12:00,
2013-08-22 15:17:00,86.7,72.6,30.06,SSW,197,0.0,1.0,63,0.00,,---,0.00,VWS V14.01,2013-08-22 19:17:00,
2013-08-22 15:22:00,86.8,72.2,30.06,West,262,1.0,1.0,62,0.00,,---,0.00,VWS V14.01,2013-08-22 19:22:00,
2013-08-22 15:27:00,86.8,71.8,30.06,SSW,201,1.0,3.0,61,0.00,,---,0.00,VWS V14.01,2013-08-22 19:27:00,
2013-08-22 15:32:00,87.0,72.9,30.05,WSW,257,1.0,3.0,63,0.00,,---,0.00,VWS V14.01,2013-08-22 19:32:00,
2013-08-22 15:37:00,87.2,72.1,30.05,WSW,249,5.0,5.0,61,0.00,,---,0.00,VWS V14.01,2013-08-22 19:37:00,
2013-08-22 15:42:00,87.3,72.7,30.05,SSW,193,2.0,2.0,62,0.00,,---,0.00,VWS V14.01,2013-08-22 19:42:00,
2013-08-22 15:47:00,87.3,72.2,30.05,WSW,242,1.0,2.0,61,0.00,,---,0.00,VWS V14.01,2013-08-22 19:47:00,
2013-08-22 15:52:00,87.0,71.4,30.05,WNW,284,3.0,5.0,60,0.00,,---,0.00,VWS V14.01,2013-08-22 19:52:00,
2013-08-22 15:57:00,86.9,71.3,30.04,NW,315,2.0,3.0,60,0.00,,---,0.00,VWS V14.01,2013-08-22 19:57:00,
2013-08-22 16:02:00,86.8,70.8,30.04,NNW,335,2.0,2.0,59,0.00,,---,0.00,VWS V14.01,2013-08-22 20:02:00,
2013-08-22 16:07:00,86.8,71.8,30.04,WSW,253,1.0,2.0,61,0.00,,---,0.00,VWS V14.01,2013-08-22 20:07:00,
2013-08-22 16:12:00,86.8,71.8,30.04,West,274,1.0,5.0,61,0.00,,---,0.00,VWS V14.01,2013-08-22 20:12:00,
2013-08-22 16:17:00,86.8,72.2,30.04,NW,309,1.0,3.0,62,0.00,,---,0.00,VWS V14.01,2013-08-22 20:17:00,
2013-08-22 16:22:00,86.9,71.8,30.04,West,260,1.0,2.0,61,0.00,,---,0.00,VWS V14.01,2013-08-22 20:22:00,
2013-08-22 16:27:00,86.8,72.2,30.04,WSW,257,2.0,3.0,62,0.00,,---,0.00,VWS V14.01,2013-08-22 20:27:00,
2013-08-22 16:32:00,86.9,71.8,30.04,SSW,212,2.0,2.0,61,0.00,,---,0.00,VWS V14.01,2013-08-22 20:32:00,
2013-08-22 16:37:00,86.7,72.1,30.04,West,267,1.0,3.0,62,0.00,,---,0.00,VWS V14.01,2013-08-22 20:37:00,
2013-08-22 16:42:00,86.3,71.8,30.04,WSW,243,2.0,2.0,62,0.00,,---,0.00,VWS V14.01,2013-08-22 20:42:00,
2013-08-22 16:47:00,86.1,73.0,30.04,NW,314,3.0,3.0,65,0.00,,---,0.00,VWS V14.01,2013-08-22 20:47:00,
2013-08-22 16:52:00,86.4,72.8,30.04,NW,309,1.0,3.0,64,0.00,,---,0.00,VWS V14.01,2013-08-22 20:52:00,
2013-08-22 16:57:00,87.2,73.1,30.04,NW,321,0.0,0.0,63,0.00,,---,0.00,VWS V14.01,2013-08-22 20:57:00,
2013-08-22 17:02:00,88.4,73.7,30.03,NW,322,0.0,0.0,62,0.00,,---,0.00,VWS V14.01,2013-08-22 21:02:00,
2013-08-22 17:08:00,89.2,73.0,30.03,SW,215,1.0,3.0,59,0.00,,---,0.00,VWS V14.01,2013-08-22 21:08:00,
2013-08-22 17:13:00,88.8,73.1,30.03,WSW,239,2.0,4.0,60,0.00,,---,0.00,VWS V14.01,2013-08-22 21:13:00,
2013-08-22 17:18:00,88.1,72.5,30.03,SW,226,3.0,4.0,60,0.00,,---,0.00,VWS V14.01,2013-08-22 21:18:00,
2013-08-22 17:23:00,87.7,74.0,30.03,SW,233,3.0,3.0,64,0.00,,---,0.00,VWS V14.01,2013-08-22 21:23:00,
2013-08-22 17:28:00,87.3,72.7,30.03,SW,236,1.0,2.0,62,0.00,,---,0.00,VWS V14.01,2013-08-22 21:28:00,
2013-08-22 17:33:00,86.9,73.3,30.03,WSW,248,2.0,3.0,64,0.00,,---,0.00,VWS V14.01,2013-08-22 21:33:00,
2013-08-22 17:38:00,86.6,73.0,30.03,WSW,249,1.0,2.0,64,0.00,,---,0.00,VWS V14.01,2013-08-22 21:38:00,
2013-08-22 17:43:00,86.4,73.7,30.03,WSW,256,2.0,3.0,66,0.00,,---,0.00,VWS V14.01,2013-08-22 21:43:00,
2013-08-22 17:48:00,86.1,73.0,30.02,West,262,1.0,2.0,65,0.00,,---,0.00,VWS V14.01,2013-08-22 21:48:00,
2013-08-22 17:53:00,86.1,73.0,30.02,WSW,248,0.0,1.0,65,0.00,,---,0.00,VWS V14.01,2013-08-22 21:53:00,
2013-08-22 17:58:00,86.2,74.0,30.02,WSW,248,0.0,0.0,67,0.00,,---,0.00,VWS V14.01,2013-08-22 21:58:00,
2013-08-22 18:03:00,86.0,73.8,30.02,WSW,256,0.0,4.0,67,0.00,,---,0.00,VWS V14.01,2013-08-22 22:03:00,
2013-08-22 18:08:00,85.6,73.8,30.03,West,259,1.0,2.0,68,0.00,,---,0.00,VWS V14.01,2013-08-22 22:08:00,
2013-08-22 18:13:00,85.4,74.1,30.03,WSW,255,0.0,1.0,69,0.00,,---,0.00,VWS V14.01,2013-08-22 22:13:00,
2013-08-22 18:18:00,85.1,73.4,30.03,West,274,1.0,1.0,68,0.00,,---,0.00,VWS V14.01,2013-08-22 22:18:00,
2013-08-22 18:23:00,84.8,73.5,30.03,West,280,2.0,2.0,69,0.00,,---,0.00,VWS V14.01,2013-08-22 22:23:00,
2013-08-22 18:28:00,84.7,73.0,30.03,WSW,243,0.0,1.0,68,0.00,,---,0.00,VWS V14.01,2013-08-22 22:28:00,
2013-08-22 18:33:00,84.7,73.4,30.03,WSW,242,1.0,2.0,69,0.00,,---,0.00,VWS V14.01,2013-08-22 22:33:00,
2013-08-22 18:38:00,84.7,73.8,30.03,WSW,249,2.0,2.0,70,0.00,,---,0.00,VWS V14.01,2013-08-22 22:38:00,
2013-08-22 18:43:00,84.6,74.2,30.03,SW,226,1.0,2.0,71,0.00,,---,0.00,VWS V14.01,2013-08-22 22:43:00,
2013-08-22 18:48:00,84.6,73.7,30.02,WSW,245,1.0,3.0,70,0.00,,---,0.00,VWS V14.01,2013-08-22 22:48:00,
2013-08-22 18:53:00,84.3,73.9,30.03,WSW,249,4.0,4.0,71,0.00,,---,0.00,VWS V14.01,2013-08-22 22:53:00,
2013-08-22 18:58:00,84.0,74.0,30.02,WSW,245,1.0,3.0,72,0.00,,---,0.00,VWS V14.01,2013-08-22 22:58:00,
2013-08-22 19:04:00,83.9,74.3,30.02,WSW,239,1.0,1.0,73,0.00,,---,0.00,VWS V14.01,2013-08-22 23:04:00,
2013-08-22 19:09:00,83.8,74.6,30.02,WSW,239,0.0,1.0,74,0.00,,---,0.00,VWS V14.01,2013-08-22 23:09:00,
2013-08-22 19:14:00,83.7,74.5,30.02,WSW,239,1.0,1.0,74,0.00,,---,0.00,VWS V14.01,2013-08-22 23:14:00,
2013-08-22 19:19:00,83.6,74.0,30.01,WSW,249,1.0,2.0,73,0.00,,---,0.00,VWS V14.01,2013-08-22 23:19:00,
2013-08-22 19:24:00,83.5,73.9,30.01,West,271,3.0,3.0,73,0.00,,---,0.00,VWS V14.01,2013-08-22 23:24:00,
2013-08-22 19:29:00,83.2,73.7,30.01,WSW,257,2.0,3.0,73,0.00,,---,0.00,VWS V14.01,2013-08-22 23:29:00,
2013-08-22 19:34:00,83.0,73.5,30.01,WSW,250,0.0,3.0,73,0.00,,---,0.00,VWS V14.01,2013-08-22 23:34:00,
2013-08-22 19:39:00,82.7,73.6,30.01,WSW,245,1.0,2.0,74,0.00,,---,0.00,VWS V14.01,2013-08-22 23:39:00,
2013-08-22 19:44:00,82.5,73.8,30.02,WSW,240,1.0,3.0,75,0.00,,---,0.00,VWS V14.01,2013-08-22 23:44:00,
2013-08-22 19:49:00,82.3,74.0,30.02,SW,236,2.0,3.0,76,0.00,,---,0.00,VWS V14.01,2013-08-22 23:49:00,
2013-08-22 19:54:00,81.9,74.0,30.02,SW,231,0.0,2.0,77,0.00,,---,0.00,VWS V14.01,2013-08-22 23:54:00,
2013-08-22 19:59:00,81.5,74.7,30.02,SSW,211,2.0,2.0,80,0.00,,---,0.00,VWS V14.01,2013-08-22 23:59:00,
2013-08-22 20:04:00,80.8,74.8,30.02,SW,219,5.0,5.0,82,0.00,,---,0.00,VWS V14.01,2013-08-23 00:04:00,
2013-08-22 20:09:00,80.7,74.3,30.03,WSW,256,1.0,6.0,81,0.00,,---,0.00,VWS V14.01,2013-08-23 00:09:00,
2013-08-22 20:14:00,80.5,74.5,30.03,West,264,3.0,4.0,82,0.00,,---,0.00,VWS V14.01,2013-08-23 00:14:00,
2013-08-22 20:19:00,80.2,74.6,30.03,West,267,5.0,5.0,83,0.00,,---,0.00,VWS V14.01,2013-08-23 00:19:00,
2013-08-22 20:24:00,79.7,74.4,30.03,WSW,257,0.0,4.0,84,0.00,,---,0.00,VWS V14.01,2013-08-23 00:24:00,
2013-08-22 20:29:00,79.3,73.7,30.03,WSW,247,6.0,9.0,83,0.00,,---,0.00,VWS V14.01,2013-08-23 00:29:00,
2013-08-22 20:34:00,79.0,73.4,30.04,West,277,4.0,9.0,83,0.00,,---,0.00,VWS V14.01,2013-08-23 00:34:00,
2013-08-22 20:39:00,78.7,73.5,30.04,West,264,3.0,5.0,84,0.00,,---,0.00,VWS V14.01,2013-08-23 00:39:00,
2013-08-22 20:44:00,78.4,73.2,30.04,SW,236,0.0,4.0,84,0.00,,---,0.00,VWS V14.01,2013-08-23 00:44:00,
2013-08-22 20:49:00,78.2,73.3,30.05,West,264,1.0,4.0,85,0.00,,---,0.00,VWS V14.01,2013-08-23 00:49:00,
2013-08-22 20:54:00,78.0,73.1,30.05,West,278,0.0,3.0,85,0.00,,---,0.00,VWS V14.01,2013-08-23 00:54:00,
2013-08-22 20:59:00,77.7,73.2,30.05,WNW,298,0.0,2.0,86,0.00,,---,0.00,VWS V14.01,2013-08-23 00:59:00,
2013-08-22 21:05:00,77.5,73.0,30.05,West,271,1.0,3.0,86,0.00,,---,0.00,VWS V14.01,2013-08-23 01:05:00,
2013-08-22 21:10:00,77.3,72.4,30.05,SW,231,0.0,4.0,85,0.00,,---,0.00,VWS V14.01,2013-08-23 01:10:00,
2013-08-22 21:15:00,77.1,71.9,30.05,WNW,282,1.0,2.0,84,0.00,,---,0.00,VWS V14.01,2013-08-23 01:15:00,
2013-08-22 21:20:00,77.0,71.1,30.06,West,281,5.0,6.0,82,0.00,,---,0.00,VWS V14.01,2013-08-23 01:20:00,
2013-08-22 21:25:00,76.8,70.5,30.06,WSW,239,2.0,6.0,81,0.00,,---,0.00,VWS V14.01,2013-08-23 01:25:00,
2013-08-22 21:30:00,76.6,71.1,30.06,SW,224,0.0,4.0,83,0.00,,---,0.00,VWS V14.01,2013-08-23 01:30:00,
2013-08-22 21:35:00,76.5,71.0,30.06,SW,228,2.0,5.0,83,0.00,,---,0.00,VWS V14.01,2013-08-23 01:35:00,
2013-08-22 21:40:00,76.2,71.7,30.06,WSW,239,1.0,2.0,86,0.00,,---,0.00,VWS V14.01,2013-08-23 01:40:00,
2013-08-22 21:45:00,75.9,71.4,30.07,West,262,1.0,3.0,86,0.00,,---,0.00,VWS V14.01,2013-08-23 01:45:00,
2013-08-22 21:50:00,75.7,71.2,30.06,West,273,2.0,2.0,86,0.00,,---,0.00,VWS V14.01,2013-08-23 01:50:00,
2013-08-22 21:55:00,75.7,71.2,30.06,WSW,255,0.0,2.0,86,0.00,,---,0.00,VWS V14.01,2013-08-23 01:55:00,
2013-08-22 22:00:00,75.5,71.4,30.07,West,273,0.0,3.0,87,0.00,,---,0.00,VWS V14.01,2013-08-23 02:00:00,
2013-08-22 22:05:00,75.4,71.3,30.07,West,267,0.0,2.0,87,0.00,,---,0.00,VWS V14.01,2013-08-23 02:05:00,
2013-08-22 22:10:00,75.2,71.4,30.07,SW,222,0.0,1.0,88,0.00,,---,0.00,VWS V14.01,2013-08-23 02:10:00,
2013-08-22 22:15:00,74.9,71.1,30.07,WSW,243,2.0,2.0,88,0.00,,---,0.00,VWS V14.01,2013-08-23 02:15:00,
2013-08-22 22:20:00,74.9,70.8,30.07,WSW,239,1.0,3.0,87,0.00,,---,0.00,VWS V14.01,2013-08-23 02:20:00,
2013-08-22 22:25:00,74.9,70.4,30.07,SW,225,2.0,3.0,86,0.00,,---,0.00,VWS V14.01,2013-08-23 02:25:00,
2013-08-22 22:30:00,74.8,70.7,30.07,SW,222,0.0,2.0,87,0.00,,---,0.00,VWS V14.01,2013-08-23 02:30:00,
2013-08-22 22:35:00,74.7,70.6,30.07,SW,235,1.0,2.0,87,0.00,,---,0.00,VWS V14.01,2013-08-23 02:35:00,
2013-08-22 22:40:00,74.7,70.9,30.07,SW,235,0.0,0.0,88,0.00,,---,0.00,VWS V14.01,2013-08-23 02:40:00,
2013-08-22 22:45:00,74.6,70.8,30.07,SW,235,0.0,0.0,88,0.00,,---,0.00,VWS V14.01,2013-08-23 02:45:00,
2013-08-22 22:50:00,74.2,70.8,30.08,SE,144,2.0,2.0,89,0.00,,---,0.00,VWS V14.01,2013-08-23 02:50:00,
2013-08-22 22:55:00,73.7,70.6,30.08,South,188,4.0,6.0,90,0.00,,---,0.00,VWS V14.01,2013-08-23 02:55:00,
2013-08-22 23:00:00,73.3,70.2,30.08,SSW,205,2.0,4.0,90,0.00,,---,0.00,VWS V14.01,2013-08-23 03:00:00,
2013-08-22 23:05:00,73.1,70.0,30.08,SSW,193,1.0,5.0,90,0.00,,---,0.00,VWS V14.01,2013-08-23 03:05:00,
2013-08-22 23:10:00,72.9,70.1,30.08,SW,225,1.0,3.0,91,0.00,,---,0.00,VWS V14.01,2013-08-23 03:10:00,
2013-08-22 23:16:00,73.0,70.2,30.07,South,188,1.0,2.0,91,0.00,,---,0.00,VWS V14.01,2013-08-23 03:16:00,
2013-08-22 23:21:00,73.0,70.5,30.07,SSW,200,2.0,3.0,92,0.00,,---,0.00,VWS V14.01,2013-08-23 03:21:00,
2013-08-22 23:26:00,73.1,70.6,30.07,SW,233,1.0,3.0,92,0.00,,---,0.00,VWS V14.01,2013-08-23 03:26:00,
2013-08-22 23:31:00,73.2,70.4,30.06,WSW,243,1.0,3.0,91,0.00,,---,0.00,VWS V14.01,2013-08-23 03:31:00,
2013-08-22 23:36:00,73.2,70.4,30.07,SSW,209,3.0,3.0,91,0.00,,---,0.00,VWS V14.01,2013-08-23 03:36:00,
2013-08-22 23:41:00,72.9,70.4,30.06,SW,222,2.0,3.0,92,0.00,,---,0.00,VWS V14.01,2013-08-23 03:41:00,
2013-08-22 23:46:00,72.8,70.3,30.06,South,179,1.0,3.0,92,0.00,,---,0.00,VWS V14.01,2013-08-23 03:46:00,
2013-08-22 23:51:00,72.8,70.7,30.06,WSW,243,0.0,2.0,93,0.00,,---,0.00,VWS V14.01,2013-08-23 03:51:00,
2013-08-22 23:56:00,72.8,70.7,30.06,WSW,250,0.0,3.0,93,0.00,,---,0.00,VWS V14.01,2013-08-23 03:56:00,